Location: Jetmore
(38.0845°N, 99.8935°W)
Time: 03:58:55
(UTC+00:00)

N. Korean satellite - Visible Passes

Search period start: 18 September 2021 00:00
Search period end: 28 September 2021 00:00
Orbit: 448 x 499 km, 97.3° (Epoch: 17 September)

Date Brightness Start Highest point End Pass type
(mag) Time Alt. Az. Time Alt. Az. Time Alt. Az.
18 Sep 8.1 11:32:53 10° NNE 11:36:12 39° E 11:39:32 10° S visible
19 Sep 9.6 11:05:59 10° NE 11:08:21 17° E 11:10:45 10° SE visible
21 Sep 7.4 11:42:44 10° NNE 11:46:13 55° E 11:49:43 10° S visible
22 Sep 9.2 11:15:31 10° NE 11:18:24 23° E 11:21:18 10° SSE visible
23 Sep 10.3 10:50:08 10° E 10:50:29 10° E 10:50:49 10° E visible
24 Sep 6.7 11:52:37 10° NNE 11:56:10 79° ESE 11:59:46 10° S visible
25 Sep 8.6 11:25:10 10° NNE 11:28:23 31° E 11:31:36 10° SSE visible
26 Sep 9.8 10:58:32 10° ENE 11:00:28 14° E 11:02:25 10° SE visible
27 Sep 6.5 12:02:30 10° N 12:06:04 74° WNW 12:09:40 10° SSW visible
